Hourly Data Report for July 25, 2021

CAMPBELL RIVER A
BRITISH COLUMBIA
Current Station Operator: NAVCAN

49°57'07.000" N
125°16'23.000" W
108.80 m
1021270
YBL

Download Data

Hourly Data (July 2021)
Hourly Data Report for July 25, 2021
TIME
LST
Temp Definition
°C
Dew Point Definition
°C
Rel Hum Definition
%
Precip. Amount Definition
mm

Wind Dir Definition
10's deg

Wind Spd Definition
km/h
Visibility Definition
km
Stn Press Definition
kPa
Hmdx Definition


Wind Chill Definition


Weather Definition


00:00 18.3 13.6 74 LegendMM 30 13 LegendMM 100.54     LegendNANA
01:00 17.6 13.5 76 LegendMM 29 14 LegendMM 100.52     LegendNANA
02:00 16.8 13.3 80 LegendMM 30 14 LegendMM 100.49     LegendNANA
03:00 16.4 13.4 82 LegendMM 30 18 LegendMM 100.52     LegendNANA
04:00 15.3 13.0 86 LegendMM 29 10 LegendMM 100.51     LegendNANA
05:00 15.1 12.9 87 LegendMM 28 8 LegendMM 100.53     LegendNANA
06:00 16.6 13.1 79 LegendMM 29 9 LegendMM 100.57     LegendNANA
07:00 18.4 13.0 70 LegendMM 31 22 LegendMM 100.58     LegendNANA
08:00 19.8 13.0 65 LegendMM 31 10 LegendMM 100.58     LegendNANA
09:00 21.9 12.9 56 LegendMM 29 10 LegendMM 100.56 25   LegendNANA
10:00 23.5 13.1 51 LegendMM 28 5 LegendMM 100.53 26   LegendNANA
11:00 23.7 13.2 51 LegendMM 8 12 LegendMM 100.50 27   LegendNANA
12:00 24.5 12.8 47 LegendMM 9 18 LegendMM 100.47 27   LegendNANA
13:00 25.4 12.3 44 LegendMM 10 14 LegendMM 100.44 28   LegendNANA
14:00 26.2 13.1 44 LegendMM 11 12 LegendMM 100.39 29   LegendNANA
15:00 26.3 13.0 43 LegendMM 10 14 LegendMM 100.35 29   LegendNANA
16:00 25.6 13.2 46 LegendMM 6 9 LegendMM 100.33 29   LegendNANA
17:00 26.5 13.0 43 LegendMM 10 8 LegendMM 100.27 29   LegendNANA
18:00 25.7 12.8 44 LegendMM 12 8 LegendMM 100.24 28   LegendNANA
19:00 25.4 13.1 46 LegendMM 12 8 LegendMM 100.23 28   LegendNANA
20:00 21.6 13.7 60 LegendMM 31 6 LegendMM 100.23 25   LegendNANA
21:00 18.1 13.4 74 LegendMM 31 4 LegendMM 100.28     LegendNANA
22:00 19.3 12.5 64 LegendMM 30 13 LegendMM 100.29     LegendNANA
23:00 17.7 12.4 71 LegendMM 30 11 LegendMM 100.27     LegendNANA

Notes on Data Quality.

Legend

  • E = Estimated
  • M = Missing
  • NA = Not Available*
  • [empty] = Indicates an unobserved value
Date modified: